This is the latest recevied weather packets stored in our database for station/object KK7ISX. If no packets are shown the sender has not sent any weather packets the latest 10 day(s).
| Time | Temp. | Humidity | Pressure | Rain* | Wind** | Luminosity | Snow |
|---|---|---|---|---|---|---|---|
| 1777770078 | 26.11° C | 22% | 1012.5 hPa | 0 mm | - | 95 W/m² | - |
| 1777769774 | 26.11° C | 21% | 1012.4 hPa | 0 mm | - | 104 W/m² | - |
| 1777769472 | 26.11° C | 23% | 1012.4 hPa | 0 mm | - | 117 W/m² | - |
| 1777769168 | 26.11° C | 22% | 1012.5 hPa | 0 mm | - | 129 W/m² | - |
| 1777768867 | 26.67° C | 23% | 1012.4 hPa | 0 mm | - | 142 W/m² | - |
| 1777768563 | 27.22° C | 21% | 1012.5 hPa | 0 mm | - | 162 W/m² | - |
| 1777768260 | 26.67° C | 20% | 1012.5 hPa | 0 mm | - | 219 W/m² | - |
| 1777767957 | 26.67° C | 21% | 1012.5 hPa | 0 mm | - | 157 W/m² | - |
| 1777767653 | 27.22° C | 21% | 1012.4 hPa | 0 mm | - | 178 W/m² | - |
| 1777767349 | 27.78° C | 22% | 1012.5 hPa | 0 mm | - | 198 W/m² | - |
| 1777767047 | 27.22° C | 22% | 1012.4 hPa | 0 mm | - | 269 W/m² | - |
| 1777766744 | 27.22° C | 20% | 1012.5 hPa | 0 mm | - | 306 W/m² | - |
| 1777766441 | 26.67° C | 19% | 1013 hPa | 0 mm | - | 247 W/m² | - |
| 1777766137 | 26.67° C | 21% | 1012.6 hPa | 0 mm | - | 220 W/m² | - |
| 1777765836 | 27.22° C | 20% | 1012.8 hPa | 0 mm | - | 218 W/m² | - |
| 1777765531 | 26.11° C | 20% | 1012.9 hPa | 0 mm | - | 216 W/m² | - |
| 1777765230 | 26.67° C | 20% | 1012.8 hPa | 0 mm | - | 219 W/m² | - |
| 1777764930 | 26.11° C | 20% | 1012.9 hPa | 0 mm | - | 207 W/m² | - |
| 1777764627 | 26.11° C | 20% | 1012.8 hPa | 0 mm | - | 159 W/m² | - |
| 1777764323 | 26.67° C | 21% | 1013 hPa | 0 mm | - | 161 W/m² | - |
| 1777764020 | 27.78° C | 21% | 1012.9 hPa | 0 mm | - | 270 W/m² | - |
| 1777763717 | 26.67° C | 20% | 1013 hPa | 0 mm | - | 420 W/m² | - |
| 1777763415 | 27.22° C | 21% | 1013.1 hPa | 0 mm | - | 478 W/m² | - |
| 1777763113 | 26.67° C | 20% | 1013.1 hPa | 0 mm | - | 466 W/m² | - |
| 1777762811 | 26.67° C | 20% | 1013.2 hPa | 0 mm | - | 304 W/m² | - |
* Rain latest hour (hover to see other rain measurements)
** Current wind speed in m/s (hover to see current wind gust speed)